Home > Weather > Tours > Past weeks

Flag for France Past Weather in Tours, Centre-Val de Loire, France — Yesterday and Last 2 Weeks

Now
70 °F

Partly sunny.


Feels Like: 70 °F
Forecast: 56 / 71 °F
Wind: 13 mph from West

Location: Tours Airport

Current Time: Jun 29, 2016 at 8:11:45 PM

Latest Report: Jun 29, 2016 at 7:30 PM


Visibility: N/A

Pressure: 29.92 "Hg

Humidity: 60%

Dew Point: 55 °F

Location of ToursLocation

Past Weather in Tours — Graph

°F

Tours Temperature Yesterday

Maximum temperature yesterday: 75 °F (at 4:00 PM)
Minimum temperature yesterday: 59 °F (at 6:00 AM)
Average temperature yesterday: 66 °F

High & Low Weather Summary for the Past Weeks

 TemperatureHumidityPressure
High88 °F (Jun 22, 4:00 PM)100% (Jun 15, 1:30 AM)30.33 "Hg (Jun 15, 1:30 AM)
Low50 °F (Jun 18, 4:30 AM)36% (Jun 25, 4:30 PM)29.50 "Hg (Jun 15, 2:30 AM)
Average64 °F77%30.03 "Hg
* Reported Jun 14 7:00 PM — Jun 29 7:00 PM, Tours, Weather by CustomWeather, © 2016

Note: Actual official high and low records may vary slightly from our data, if they occured in-between our weather recording intervals... More about our weather records

Advertising

Tours Weather History for the Previous 24 Hours

Scroll right to see more
 ConditionsComfort  
Time TempWeatherWind HumidityBarometerVisibility
7:00 PM
Wed, Jun 29
72 °FPartly sunny.13 mph57%29.92 "HgN/A
6:30 PM72 °FPartly sunny.13 mph57%29.92 "HgN/A
6:00 PM73 °FPartly sunny.12 mph53%29.92 "HgN/A
5:30 PM73 °FBroken clouds.12 mph53%29.95 "HgN/A
5:00 PM72 °FPassing clouds.9 mph57%29.95 "HgN/A
4:30 PM73 °FBroken clouds.10 mph53%29.95 "HgN/A
4:00 PM72 °FBroken clouds.8 mph61%29.95 "HgN/A
3:30 PM72 °FMostly cloudy.9 mph61%29.98 "HgN/A
3:00 PM72 °FCloudy.12 mph57%29.98 "HgN/A
2:30 PM73 °FPartly sunny.9 mph57%29.98 "HgN/A
2:00 PM72 °FBroken clouds.12 mph57%29.98 "HgN/A
1:30 PM72 °FBroken clouds.13 mph61%29.98 "HgN/A
1:00 PM72 °FBroken clouds.12 mph57%29.98 "HgN/A
12:30 PM70 °FBroken clouds.13 mph60%29.98 "HgN/A
12:00 PM70 °FBroken clouds.12 mph64%30.01 "HgN/A
11:30 AM68 °FBroken clouds.8 mph69%30.01 "HgN/A
11:00 AM68 °FMostly cloudy.8 mph69%30.01 "HgN/A
10:30 AM66 °FBroken clouds.8 mph73%30.01 "HgN/A
10:00 AM64 °FPartly sunny.6 mph78%30.01 "HgN/A
9:30 AM63 °FPartly sunny.6 mph77%30.01 "HgN/A
9:00 AM63 °FBroken clouds.5 mph77%30.04 "HgN/A
8:30 AM63 °FMostly cloudy.5 mph83%30.04 "HgN/A
8:00 AM61 °FBroken clouds.5 mph88%30.04 "HgN/A
7:30 AM61 °FPartly sunny.6 mph88%30.04 "HgN/A
7:00 AM59 °FPartly cloudy.3 mph88%30.01 "HgN/A
6:30 AM59 °FPartly cloudy.2 mph88%30.04 "HgN/A
6:00 AM59 °FPassing clouds.5 mph88%30.04 "HgN/A
5:30 AM59 °FPassing clouds.3 mph88%30.01 "HgN/A
5:00 AM59 °FPassing clouds.5 mph88%30.04 "HgN/A
4:30 AM59 °FMostly cloudy.6 mph88%30.04 "HgN/A
4:00 AM59 °FPassing clouds.7 mph82%30.01 "HgN/A
3:30 AM61 °FMostly cloudy.7 mph77%30.01 "HgN/A
3:00 AM61 °FMostly cloudy.8 mph77%30.01 "HgN/A
2:30 AM61 °FOvercast.7 mph77%30.01 "HgN/A
2:00 AM61 °FPassing clouds.7 mph77%30.04 "HgN/A
1:30 AM59 °FPassing clouds.7 mph82%30.04 "HgN/A
1:00 AM61 °FPassing clouds.9 mph77%30.04 "HgN/A
12:30 AM61 °FPassing clouds.9 mph83%30.04 "HgN/A
12:00 AM63 °FPassing clouds.8 mph77%30.04 "HgN/A
11:30 PM
Tue, Jun 28
64 °FPassing clouds.10 mph73%30.04 "HgN/A
11:00 PM64 °FPassing clouds.10 mph73%30.01 "HgN/A
10:00 PM66 °FSunny.8 mph73%30.01 "Hg10 mi
9:30 PM68 °FSunny.9 mph69%29.98 "Hg10 mi
9:00 PM70 °FPassing clouds.10 mph64%29.98 "HgN/A
8:30 PM70 °FPartly sunny.10 mph64%29.98 "HgN/A
8:00 PM70 °FPartly sunny.10 mph64%29.98 "HgN/A
Weather by CustomWeather, © 2016

See weather overviewHow to use our weather pages